TimeEST,TemperatureF,Dew PointF,Humidity,Sea Level PressureIn,VisibilityMPH,Wind Direction,Wind SpeedMPH,Gust SpeedMPH,PrecipitationIn,Events,Conditions,WindDirDegrees,DateUTC
12:53 AM,30.9,27.0,85,30.00,10.0,NNE,6.9,-,N/A,,Overcast,20,2013-03-01 05:53:00
1:53 AM,30.9,24.1,76,30.02,10.0,NE,8.1,-,N/A,,Overcast,40,2013-03-01 06:53:00
2:53 AM,30.2,23.0,75,29.99,10.0,NE,6.9,-,N/A,,Overcast,50,2013-03-01 07:53:00
3:13 AM,30.2,21.2,69,29.99,10.0,NE,6.9,-,N/A,,Overcast,40,2013-03-01 08:13:00
3:53 AM,30.0,21.9,72,30.02,10.0,NNE,10.4,-,N/A,,Overcast,20,2013-03-01 08:53:00
4:53 AM,28.9,21.0,72,30.03,10.0,NNE,6.9,-,N/A,,Overcast,30,2013-03-01 09:53:00
5:53 AM,28.9,21.0,72,30.04,10.0,NNE,9.2,-,N/A,,Overcast,20,2013-03-01 10:53:00
6:48 AM,28.4,19.4,69,30.02,10.0,NE,5.8,-,N/A,,Overcast,40,2013-03-01 11:48:00
6:53 AM,28.9,19.9,69,30.05,10.0,NNE,6.9,-,N/A,,Overcast,20,2013-03-01 11:53:00
7:53 AM,28.0,19.9,72,30.08,10.0,NNE,9.2,-,N/A,,Overcast,30,2013-03-01 12:53:00
8:53 AM,28.9,21.0,72,30.09,10.0,NNE,11.5,-,N/A,,Overcast,30,2013-03-01 13:53:00
9:53 AM,28.9,21.0,72,30.10,10.0,North,8.1,-,N/A,,Overcast,10,2013-03-01 14:53:00
10:53 AM,28.0,19.9,72,30.12,10.0,North,9.2,-,N/A,,Overcast,10,2013-03-01 15:53:00
11:53 AM,28.9,19.9,69,30.12,10.0,NNE,6.9,-,N/A,,Overcast,20,2013-03-01 16:53:00
12:53 PM,28.9,19.9,69,30.12,10.0,Variable,5.8,-,N/A,,Overcast,0,2013-03-01 17:53:00
1:53 PM,28.9,19.9,69,30.11,10.0,NNE,9.2,-,N/A,,Overcast,30,2013-03-01 18:53:00
2:53 PM,28.9,19.0,67,30.10,10.0,NE,9.2,-,N/A,,Overcast,50,2013-03-01 19:53:00
3:38 PM,28.4,19.4,69,30.06,10.0,NE,9.2,-,N/A,,Scattered Clouds,40,2013-03-01 20:38:00
3:53 PM,28.9,18.0,64,30.10,10.0,North,12.7,17.3,N/A,,Partly Cloudy,10,2013-03-01 20:53:00
4:53 PM,27.0,18.0,69,30.11,10.0,NE,8.1,-,N/A,,Scattered Clouds,40,2013-03-01 21:53:00
5:53 PM,26.1,18.0,71,30.13,10.0,NE,8.1,-,N/A,,Overcast,50,2013-03-01 22:53:00
6:53 PM,25.0,17.1,72,30.15,10.0,NE,4.6,-,N/A,,Overcast,50,2013-03-01 23:53:00
7:53 PM,24.1,16.0,71,30.16,10.0,Calm,Calm,-,N/A,,Scattered Clouds,0,2013-03-02 00:53:00
8:53 PM,21.2,15.8,80,30.12,10.0,Calm,Calm,-,N/A,,Mostly Cloudy,0,2013-03-02 01:53:00
9:53 PM,24.1,18.0,77,30.17,10.0,Calm,Calm,-,N/A,,Overcast,0,2013-03-02 02:53:00
10:53 PM,25.0,18.0,75,30.16,10.0,WNW,3.5,-,N/A,,Overcast,290,2013-03-02 03:53:00
11:53 PM,25.0,18.0,75,30.15,10.0,North,9.2,-,N/A,,Overcast,350,2013-03-02 04:53:00